Regional Weather Roundup
Issued by NWS Charleston, SC

Current Version | Previous Version | Graphics & Text | Print | Product List | Glossary On
Versions: 1 2 3 4 5 6 7 8 9 10 11 12 13 14 15 16 17 18 19 20 21 22 23 24 25 26 27 28 29 30 31 32 33 34 35 36 37 38 39 40 41 42 43 44 45 46 47 48 49 50
000
ASUS42 KCHS 290727
RWRCHS

REGIONAL WEATHER ROUNDUP
NATIONAL WEATHER SERVICE CHARLESTON SC
300 AM EDT WED MAR 29 2017

NOTE: "FAIR" INDICATES FEW OR NO CLOUDS BELOW 12,000 FEET WITH NO
SIGNIFICANT WEATHER AND/OR OBSTRUCTIONS TO VISIBILITY.

NOT ALL STATIONS ARE QUALITY CONTROLLED. USE DATA WITH CAUTION...
ESPECIALLY DEWPOINT OBSERVATIONS.

SCZ027-030-031-034>040-042>050-290800-
...SOUTHEAST SOUTH CAROLINA...

CITY           SKY/WX    TMP DP  RH WIND       PRES   REMARKS
N CHARLESTON   PTCLDY    65  61  87 W6        29.95S
WATERFRONT PRK   N/A     66  63  90 CALM      29.93F
JOHNS ISLAND   FAIR      66  63  88 W5        29.94F
PINOPOLIS        N/A     64  63  94 SW5       29.85F
MONCKS CORNER  FAIR      61  59  94 CALM      29.95S
SUMMERVILLE    FAIR      61  59  94 CALM      29.96S
BEAUFORT MCAS  CLEAR     64  63  96 SW6       29.95F
BEAUFORT ARPT  FAIR      64  63  94 SW5       29.95S
HILTON HEAD IS CLEAR     68  63  83 SW5       29.96F
WALTERBORO     SUNNY     61  61 100 CALM      29.96F FOG
ALLENDALE      FAIR      61  59  94 CALM      29.95F

...SOUTHERN MIDLANDS AND PEE DEE...

CITY           SKY/WX    TMP DP  RH WIND       PRES   REMARKS
GEORGETOWN     FAIR      61  59  94 CALM      29.95S
KINGSTREE      FAIR      59  55  88 CALM      29.96S
ORANGEBURG     CLEAR     61  58  90 N3        29.97R
BARNWELL       FAIR      59  57  94 CALM      29.97S
AIKEN          FAIR      54  52  94 CALM      30.01F
MANNING        FAIR      61  55  82 NE6       29.96S
COLUMBIA       CLEAR     59  54  83 W3        29.97R
SUMTER         CLEAR     61  52  71 N3        29.95S
FLORENCE       CLEAR     62  54  74 N5        29.96S
MYRTLE BEACH   CLEAR     64  61  88 NW7       29.95S
N MYRTLE BEACH CLEAR     64  61  90 W5        29.93S

$$

GAZ063-065-086>088-099>101-113>116-118-119-134>141-150-290800-
...SOUTHEAST GEORGIA...

CITY           SKY/WX    TMP DP  RH WIND       PRES   REMARKS
SAVANNAH ARPT  CLEAR     65  58  78 W3        29.97F
HUNTER AAF     CLEAR     66  63  91 CALM      29.94F
FORT STEWART   CLEAR     61  59  94 CALM      29.95F
STATESBORO     CLEAR     63  63 100 CALM      29.97S
SYLVANIA       SUNNY    N/A N/A N/A CALM      29.97F
CLAXTON        FAIR     N/A N/A N/A CALM      29.97F

...CSRA...CENTRAL AND FAR SOUTHEAST GEORGIA...

CITY           SKY/WX    TMP DP  RH WIND       PRES   REMARKS
THOMSON        CLEAR     55  53  94 CALM      30.03F
AUGUSTA-BUSH   CLEAR     59  57  93 N3        29.97S
AUGUSTA-DANIEL CLEAR     69  53  56 NW5       29.98S
SWAINSBORO     CLOUDY    63  61  94 CALM      29.98F
VIDALIA        CLEAR     68  63  83 W3        29.99S
EASTMAN        FAIR      68  54  59 CALM      30.01F
HAZLEHURST     FAIR      69  66  90 SW3       29.98F
ALMA           CLEAR     66  63  90 SW5       29.99F
WAYCROSS       CLEAR     65  65 100 W3        30.00S
JESUP          FAIR      64  59  82 CALM      29.98F
BAXLEY         FAIR      64  64 100 CALM      29.98F
BRUNSWICK      CLEAR     66  63  88 W5        29.99F
SAINT SIMONS   CLEAR     67  60  78 W6        29.98S

$$

SCZ027-028-034-036>038-045-046-048>050-GAZ119-141-290800-
...LAKE AND SUPPLEMENTAL COASTAL OBSERVATIONS...

STATION/POSITION TIME  TEMP    WIND        PRES    WAVE   SWELL
                       AIR SEA DIR/SP/G            HT/PER HT/PER/DIR
                 (UTC) (F)     (DEG/KT/KT) (MB)    (FT/S) (FT/S/D)
WINYAH BAY       0645   65     290/  4     1014.0S
LAKE MURRAY      0650   63        CALM     1014.9R
ACE BASIN NERRS  0630   65     220/  1     1014.0F
FORT PULASKI     0700   66 66  240/  3/  4 1014.8
SAPELO ISLAND    0700   66     220/  4     1015.0

$$

ANZ835-935-AMZ111-154-330-350-352-354-370-450-454-472-290800-
...C-MAN AND BUOY OBSERVATIONS...

STATION/POSITION TIME  TEMP    WIND        PRES    WAVE   SWELL
                       AIR SEA DIR/SP/G            HT/PER HT/PER/DIR
                 (UTC) (F)     (DEG/KT/KT) (MB)    (FT/S) (FT/S/D)
BUOY 41004       0650   69 71  250/ 17/ 21 1013.2F   6/10   5/110/10
BUOY 41008       0650   66 64  220/ 10/ 12 1014.8F   3/11   3/140/11
FOLLY BEACH CMAN 0700   66     240/  6/  7 1014.4F
CAPERS NEARSHORE NOT AVBL
FRIPP NEARSHORE  0708   65 65  250/  8/ 10 1014.0F


STATION/POSITION TIME  TEMP    WIND        PRES    WAVE   SWELL
                       AIR SEA DIR/SP/G            HT/PER HT/PER/DIR
                 (UTC) (F)     (DEG/KT/KT) (MB)    (FT/S) (FT/S/D)
5E ST. MARYS GA  0700      67                N/A     3/11   2/110/11
FRYING PAN BUOY  0710   67 70  250/ 14/ 16 1013.0
BUOY 41025       0650   68 74  320/ 14/ 16 1012.2F   6/10   5/150/10
CAPE LOOKOUT NC  0700   65     310/  5/  6 1012.4F
BUOY 41002       0650   71 72  230/ 14/ 17 1014.1F   5/10   5/ 90/10
BUOY 41010       NOT AVBL
ST AUGUSTINE FL  0700   66 68  230/  2/  3 1016.8F


$$




USA.gov is the U.S. government's official web portal to all federal, state and local government web resources and services.